Daviess Cnty AP, Washington,, IN

3:01 PM EDT on June 23, 2017 (GMT -0400)
Daviess County

Weather History for KDCY - January, 2014

Change the Weather History Date:

Thursday, January 30, 2014

  Actual Average (KLWV) Record (KLWV)
Temperature  
Mean Temperature 26 °F -  
Max Temperature 37 °F 38 °F 63 °F (2016)
Min Temperature 14 °F 23 °F -7 °F (2004)
Degree Days  
Heating Degree Days 40    
Moisture  
Dew Point 7 °F    
Average Humidity 46    
Maximum Humidity 67    
Minimum Humidity 28    
Precipitation  
Precipitation 0.00 in - - ()
Sea Level Pressure  
Sea Level Pressure 30.08 in    
Wind  
Wind Speed 12 mph (South)    
Max Wind Speed 24 mph    
Max Gust Speed 31 mph    
Visibility 10 miles    
Events      
Averages and records for this station are not official NWS values.
T = Trace of Precipitation, MM = Missing Value Source: NWS Daily Summary

Daily Weather History Graph

Daily Weather History Graph

Search for Another Location

Airport or City:

Trip Planner

Search our weather history database for the weather conditions in past years. The results will help you decide how hot, cold, wet, or windy it might be!

Date:

Astronomy

Jan. 30, 2014 Rise Set
Actual Time 7:56 AM EST 6:08 PM EST
Civil Twilight 7:27 AM EST 6:36 PM EST
Nautical Twilight 6:56 AM EST 7:08 PM EST
Astronomical Twilight 6:24 AM EST 7:39 PM EST
Moon 7:22 AM EST (1/30) 6:18 PM EST (1/30)
Length of Visible Light 11h 08m
Length of Day
10h 12m
Waning Crescent, 0% of the Moon is Illuminated
Jan 30
Waning Crescent
Jan 30
New
Feb 6
First Quarter
Feb 14
Full
Feb 22
Last Quarter

Hourly Weather History & Observations

Time (EST) Temp. Windchill Dew Point Humidity Pressure Visibility Wind Dir Wind Speed Gust Speed Precip Events Conditions
12:15 AM 17.1 °F 6.6 °F 5.0 °F 59% 30.25 in 10.0 mi South 8.1 mph - N/A   Clear
12:35 AM 16.5 °F 6.9 °F 5.0 °F 61% 30.25 in 10.0 mi South 6.9 mph - N/A   Clear
12:55 AM 16.3 °F 5.7 °F 5.0 °F 61% 30.25 in 10.0 mi South 8.1 mph - N/A   Clear
1:15 AM 15.6 °F 4.9 °F 5.4 °F 64% 30.24 in 10.0 mi South 8.1 mph - N/A   Clear
1:35 AM 16.5 °F 6.0 °F 4.6 °F 60% 30.23 in 10.0 mi South 8.1 mph - N/A   Clear
1:55 AM 15.8 °F 3.4 °F 5.0 °F 62% 30.23 in 10.0 mi South 10.4 mph - N/A   Clear
2:15 AM 15.6 °F 4.9 °F 5.0 °F 63% 30.22 in 10.0 mi South 8.1 mph - N/A   Clear
2:35 AM 15.8 °F 4.2 °F 5.2 °F 63% 30.22 in 10.0 mi South 9.2 mph - N/A   Clear
2:55 AM 16.0 °F 4.4 °F 5.0 °F 62% 30.22 in 10.0 mi South 9.2 mph - N/A   Clear
3:15 AM 15.8 °F 5.1 °F 5.0 °F 62% 30.22 in 10.0 mi South 8.1 mph - N/A   Clear
3:35 AM 15.3 °F 4.4 °F 5.0 °F 64% 30.21 in 10.0 mi South 8.1 mph - N/A   Clear
3:55 AM 15.6 °F 4.9 °F 4.8 °F 62% 30.21 in 10.0 mi South 8.1 mph - N/A   Clear
4:15 AM 15.8 °F 4.2 °F 4.6 °F 61% 30.20 in 10.0 mi SSE 9.2 mph - N/A   Clear
4:35 AM 14.7 °F 2.1 °F 5.0 °F 65% 30.20 in 10.0 mi SSE 10.4 mph - N/A   Clear
4:55 AM 14.9 °F 5.0 °F 4.8 °F 64% 30.20 in 10.0 mi SSE 6.9 mph - N/A   Clear
5:15 AM 14.2 °F 3.1 °F 4.8 °F 66% 30.19 in 10.0 mi SSE 8.1 mph - N/A   Clear
5:35 AM 14.0 °F 3.9 °F 4.8 °F 67% 30.20 in 10.0 mi SSE 6.9 mph - N/A   Clear
5:55 AM 14.0 °F 2.9 °F 4.8 °F 67% 30.20 in 10.0 mi SSE 8.1 mph - N/A   Clear
6:15 AM 14.5 °F 2.7 °F 5.0 °F 66% 30.20 in 10.0 mi SSE 9.2 mph - N/A   Clear
6:35 AM 14.9 °F 4.0 °F 4.8 °F 64% 30.19 in 10.0 mi South 8.1 mph - N/A   Clear
6:55 AM 15.6 °F 2.5 °F 4.5 °F 61% 30.19 in 10.0 mi SSE 11.5 mph - N/A   Clear
7:15 AM 15.3 °F 3.5 °F 4.3 °F 62% 30.19 in 10.0 mi South 9.2 mph - N/A   Clear
7:35 AM 15.6 °F 2.5 °F 4.1 °F 60% 30.18 in 10.0 mi South 11.5 mph - N/A   Clear
7:55 AM 15.4 °F 3.8 °F 4.1 °F 61% 30.18 in 10.0 mi South 9.2 mph - N/A   Clear
8:15 AM 16.0 °F 4.4 °F 4.6 °F 61% 30.19 in 10.0 mi South 9.2 mph - N/A   Clear
8:35 AM 17.8 °F 6.6 °F 5.2 °F 58% 30.20 in 10.0 mi South 9.2 mph - N/A   Clear
8:55 AM 18.5 °F 6.1 °F 5.2 °F 56% 30.18 in 10.0 mi South 11.5 mph - N/A   Clear
9:15 AM 19.2 °F 6.4 °F 5.2 °F 54% 30.15 in 10.0 mi SSE 12.7 mph - N/A   Clear
9:35 AM 19.9 °F 6.7 °F 5.7 °F 54% 30.16 in 10.0 mi South 13.8 mph - N/A   Clear
9:55 AM 21.7 °F 10.2 °F 6.3 °F 51% 30.17 in 10.0 mi South 11.5 mph 19.6 mph N/A   Clear
10:15 AM 23.4 °F 11.1 °F 6.8 °F 49% 30.14 in 10.0 mi South 13.8 mph 19.6 mph N/A   Clear
10:35 AM 24.4 °F 11.5 °F 6.1 °F 46% 30.12 in 10.0 mi South 16.1 mph 21.9 mph N/A   Clear
10:55 AM 25.2 °F 12.4 °F 5.7 °F 44% 30.10 in 10.0 mi South 16.1 mph 23.0 mph N/A   Clear
11:15 AM 25.7 °F 12.7 °F 6.1 °F 43% 30.09 in 10.0 mi South 17.3 mph 23.0 mph N/A   Clear
11:35 AM 27.5 °F 13.5 °F 6.3 °F 41% 30.09 in 10.0 mi South 21.9 mph 26.5 mph N/A   Clear
11:55 AM 29.1 °F 16.0 °F 6.6 °F 39% 30.07 in 10.0 mi South 20.7 mph 27.6 mph N/A   Clear
12:15 PM 29.8 °F 17.3 °F 7.0 °F 38% 30.07 in 10.0 mi South 19.6 mph - N/A   Clear
12:35 PM 31.1 °F 19.3 °F 7.3 °F 37% 30.05 in 10.0 mi South 18.4 mph - N/A   Clear
12:55 PM 32.0 °F 19.2 °F 7.9 °F 36% 30.02 in 10.0 mi South 23.0 mph 29.9 mph N/A   Clear
1:15 PM 33.3 °F 21.5 °F 8.2 °F 35% 30.01 in 10.0 mi South 20.7 mph 29.9 mph N/A   Clear
1:35 PM 33.3 °F 21.2 °F 8.6 °F 36% 29.99 in 10.0 mi South 21.9 mph 27.6 mph N/A   Clear
1:55 PM 33.3 °F 20.6 °F 8.1 °F 35% 29.98 in 10.0 mi SSW 24.2 mph 28.8 mph N/A   Clear
2:15 PM 33.1 °F 21.9 °F 7.9 °F 35% 29.97 in 10.0 mi SSW 18.4 mph 26.5 mph N/A   Clear
2:35 PM 35.4 °F 24.6 °F 8.1 °F 32% 29.96 in 10.0 mi South 19.6 mph 27.6 mph N/A   Clear
2:55 PM 34.3 °F 23.5 °F 8.6 °F 34% 29.92 in 10.0 mi South 18.4 mph 27.6 mph N/A   Clear
3:15 PM 35.1 °F 23.0 °F 8.1 °F 33% 29.89 in 10.0 mi South 24.2 mph 29.9 mph N/A   Clear
3:35 PM 37.2 °F 27.6 °F 8.6 °F 31% 29.91 in 10.0 mi South 17.3 mph 27.6 mph N/A   Clear
3:55 PM 37.4 °F 27.8 °F 8.4 °F 30% 29.93 in 10.0 mi South 17.3 mph - N/A   Clear
4:15 PM 37.2 °F 26.1 °F 7.0 °F 28% 29.92 in 10.0 mi SSW 23.0 mph 29.9 mph N/A   Clear
4:35 PM 36.1 °F 25.9 °F 7.0 °F 30% 29.91 in 10.0 mi SSW 18.4 mph - N/A   Clear
4:55 PM 36.1 °F 25.0 °F 7.7 °F 31% 29.91 in 10.0 mi South 21.9 mph 31.1 mph N/A   Clear
5:15 PM 35.8 °F 26.1 °F 8.6 °F 32% 29.91 in 10.0 mi South 16.1 mph 23.0 mph N/A   Clear
5:35 PM 35.6 °F 25.9 °F 8.8 °F 33% 29.91 in 10.0 mi South 16.1 mph 25.3 mph N/A   Clear
5:55 PM 35.6 °F 27.1 °F 8.2 °F 32% 29.92 in 10.0 mi SSW 12.7 mph 24.2 mph N/A   Clear
6:15 PM 35.6 °F 28.0 °F 7.9 °F 32% 29.94 in 10.0 mi SSW 10.4 mph 20.7 mph N/A   Clear
6:35 PM 35.1 °F 26.9 °F 7.7 °F 32% 29.94 in 10.0 mi SSW 11.5 mph - N/A   Clear
6:55 PM 35.2 °F 28.1 °F 8.2 °F 33% 29.96 in 10.0 mi SSW 9.2 mph - N/A   Clear
7:15 PM 35.6 °F 28.6 °F 7.9 °F 32% 29.96 in 10.0 mi SSW 9.2 mph - N/A   Clear
7:35 PM 35.4 °F 26.0 °F 8.2 °F 32% 29.95 in 10.0 mi South 15.0 mph 23.0 mph N/A   Scattered Clouds
7:55 PM 35.2 °F 26.2 °F 7.9 °F 32% 29.96 in 10.0 mi SSW 13.8 mph 19.6 mph N/A   Scattered Clouds
8:15 PM 35.2 °F 27.1 °F 7.5 °F 32% 29.97 in 10.0 mi SSW 11.5 mph 18.4 mph N/A   Clear
8:35 PM 35.2 °F 25.8 °F 7.9 °F 32% 29.97 in 10.0 mi SSW 15.0 mph 18.4 mph N/A   Clear
8:55 PM 35.2 °F 27.1 °F 8.4 °F 33% 29.98 in 10.0 mi SSW 11.5 mph - N/A   Mostly Cloudy
9:15 PM 35.6 °F 27.5 °F 8.6 °F 33% 29.98 in 10.0 mi SSW 11.5 mph 16.1 mph N/A   Overcast
9:35 PM 35.8 °F 26.9 °F 8.2 °F 32% 29.98 in 10.0 mi SSW 13.8 mph - N/A   Overcast
9:55 PM 35.6 °F 26.6 °F 8.4 °F 32% 29.98 in 10.0 mi SSW 13.8 mph 18.4 mph N/A   Scattered Clouds
10:15 PM 35.6 °F 26.6 °F 8.6 °F 33% 29.99 in 10.0 mi SSW 13.8 mph 20.7 mph N/A   Clear
10:35 PM 35.8 °F 26.9 °F 8.4 °F 32% 29.99 in 10.0 mi SSW 13.8 mph 19.6 mph N/A   Clear
10:55 PM 36.0 °F 27.5 °F 8.2 °F 32% 29.99 in 10.0 mi SSW 12.7 mph 19.6 mph N/A   Clear
11:15 PM 36.0 °F 26.7 °F 8.4 °F 32% 30.00 in 10.0 mi SSW 15.0 mph 23.0 mph N/A   Mostly Cloudy
11:35 PM 36.0 °F 27.1 °F 8.2 °F 32% 30.00 in 10.0 mi SW 13.8 mph 20.7 mph N/A   Scattered Clouds
11:55 PM 36.0 °F 27.5 °F 8.4 °F 32% 30.00 in 10.0 mi SSW 12.7 mph 20.7 mph N/A   Mostly Cloudy